カタログに戻る

GRIFON-4

運用中科学SSO
NORAD 67277·PAYLOAD·🇷🇺 Russia
この衛星名は、まだ公式ソースで確認されていません。

打ち上げ Dec 28, 2025 から Vostochny Cosmodrome

Loading…

次のパス (今後24時間)

TLE

最新Source: Space-Track

元期: Sep 14, 2026, 10:33 UTC

1 67277U 25313AF  26257.43987447  .00005011  00000-0  21201-3 0  9997
2 67277  97.3837 330.5528 0014667  58.1167 302.1495 15.23555135 39535

AllMySatでGRIFON-4をリアルタイム追跡

Download on the App Store